This is the latest recevied weather packets stored in our database for station/object KA0EGE. If no packets are shown the sender has not sent any weather packets the latest 10 day(s).
| Time | Temp. | Humidity | Pressure | Rain* | Wind** | Luminosity | Snow |
|---|---|---|---|---|---|---|---|
| 1777824784 | 22.78° C | 38% | 1023.9 hPa | 0 mm | - | 816 W/m² | - |
| 1777824481 | 22.22° C | 36% | 1024.1 hPa | 0 mm | - | 785 W/m² | - |
| 1777824177 | 22.22° C | 41% | 1024.1 hPa | 0 mm | - | 780 W/m² | - |
| 1777823873 | 22.22° C | 38% | 1024 hPa | 0 mm | - | 785 W/m² | - |
| 1777823571 | 22.22° C | 38% | 1024 hPa | 0 mm | - | 785 W/m² | - |
| 1777823267 | 22.22° C | 36% | 1024.1 hPa | 0 mm | - | 771 W/m² | - |
| 1777822965 | 22.22° C | 36% | 1024.2 hPa | 0 mm | - | 757 W/m² | - |
| 1777822663 | 22.78° C | 35% | 1024 hPa | 0 mm | - | 745 W/m² | - |
| 1777822361 | 22.22° C | 39% | 1023.9 hPa | 0 mm | - | 732 W/m² | - |
| 1777822058 | 22.22° C | 38% | 1024.4 hPa | 0 mm | - | 718 W/m² | - |
| 1777821756 | 21.67° C | 37% | 1024.4 hPa | 0 mm | - | 692 W/m² | - |
| 1777821453 | 21.67° C | 41% | 1024.1 hPa | 0 mm | - | 700 W/m² | - |
| 1777821150 | 22.22° C | 38% | 1024.2 hPa | 0 mm | - | 680 W/m² | - |
| 1777820847 | 21.67° C | 44% | 1024.1 hPa | 0 mm | - | 663 W/m² | - |
| 1777820543 | 21.67° C | 45% | 1024.2 hPa | 0 mm | - | 660 W/m² | - |
| 1777820240 | 21.67° C | 43% | 1024.1 hPa | 0 mm | - | 632 W/m² | - |
| 1777819937 | 21.67° C | 43% | 1024.1 hPa | 0 mm | - | 613 W/m² | - |
| 1777819635 | 20.56° C | 47% | 1024.2 hPa | 0 mm | - | 614 W/m² | - |
| 1777819333 | 20.56° C | 44% | 1024.1 hPa | 0 mm | - | 600 W/m² | - |
| 1777819029 | 20.56° C | 46% | 1024 hPa | 0 mm | - | 583 W/m² | - |
| 1777818727 | 20° C | 48% | 1024.1 hPa | 0 mm | - | 567 W/m² | - |
| 1777818423 | 20° C | 50% | 1023.9 hPa | 0 mm | - | 551 W/m² | - |
| 1777818119 | 19.44° C | 49% | 1024.1 hPa | 0 mm | - | 536 W/m² | - |
| 1777817816 | 20° C | 51% | 1023.6 hPa | 0 mm | - | 521 W/m² | - |
| 1777817514 | 18.89° C | 51% | 1023.5 hPa | 0 mm | - | 504 W/m² | - |
* Rain latest hour (hover to see other rain measurements)
** Current wind speed in m/s (hover to see current wind gust speed)